BGJN

Ilulissat  Airport

Ilulissat, Greenland
Issued Wind Visibility Ceiling Temperature Dew Point Humidity Barometer
Nov-18
03:50 UTC
150°
1 KTS
    -15° C
F
-21° C
-6° F
60% 30.44" Hg
1031 hPa
Nov-18
02:50 UTC
090°
7 KTS
    -14° C
F
-21° C
-6° F
56% 30.44" Hg
1031 hPa
Nov-18
01:50 UTC
100°
3 KTS
  Broken
2,100' AGL
-14° C
F
-21° C
-6° F
56% 30.44" Hg
1031 hPa
Nov-18
00:50 UTC
  Broken
2,200' AGL
-14° C
F
-19° C
-2° F
66% 30.41" Hg
1030 hPa
Nov-17
23:50 UTC
080°
7 KTS
  Broken
4,900' AGL
-13° C
F
-22° C
-8° F
47% 30.41" Hg
1030 hPa
Nov-17
22:50 UTC
080°
7 KTS
  Broken
4,800' AGL
-13° C
F
-21° C
-6° F
51% 30.41" Hg
1030 hPa
Nov-17
21:50 UTC
090°
12 KTS
  Broken
4,600' AGL
-13° C
F
-21° C
-6° F
51% 30.38" Hg
1029 hPa
Nov-17
20:50 UTC
090°
10 KTS
  Broken
4,600' AGL
-13° C
F
-21° C
-6° F
51% 30.38" Hg
1029 hPa
Nov-17
19:50 UTC
090°
12 KTS
10,000+ meters Broken
5,200' AGL
-13° C
F
-21° C
-6° F
51% 30.38" Hg
1029 hPa
VFR
Nov-17
18:50 UTC
080°
12 KTS
10,000+ meters Broken
4,800' AGL
-12° C
10° F
-20° C
-4° F
52% 30.35" Hg
1028 hPa
VFR
Nov-17
17:50 UTC
090°
14 KTS
10,000+ meters Broken
5,100' AGL
-13° C
F
-20° C
-4° F
56% 30.35" Hg
1028 hPa
VFR
Nov-17
16:50 UTC
080°
14 KTS
10,000+ meters Broken
5,100' AGL
-12° C
10° F
-20° C
-4° F
52% 30.32" Hg
1027 hPa
VFR
Nov-17
15:50 UTC
090°
15 KTS
10,000+ meters Broken
5,100' AGL
-12° C
10° F
-19° C
-2° F
56% 30.32" Hg
1027 hPa
VFR
Nov-17
14:50 UTC
090°
13 KTS
10,000+ meters Broken
4,100' AGL
-12° C
10° F
-18° C
-0° F
61% 30.32" Hg
1027 hPa
VFR
Nov-17
13:50 UTC
090°
11 KTS
10,000+ meters Broken
4,500' AGL
-11° C
12° F
-18° C
-0° F
57% 30.3" Hg
1026 hPa
VFR
Nov-17
12:50 UTC
090°
18 KTS
10,000+ meters Broken
3,000' AGL
-12° C
10° F
-18° C
-0° F
61% 30.3" Hg
1026 hPa
MVFR
Nov-17
11:50 UTC
090°
19 KTS
10,000+ meters Broken
4,800' AGL
-13° C
F
-17° C
F
72% 30.27" Hg
1025 hPa
VFR
Nov-17
10:50 UTC
090°
20 KTS
5,005 meters Broken
5,800' AGL
-13° C
F
-18° C
-0° F
66% 30.27" Hg
1025 hPa
MVFR
Nov-17
09:50 UTC
090°
21 KTS
2,993 meters Broken
6,400' AGL
-13° C
F
-17° C
F
72% 30.24" Hg
1024 hPa
IFR
Nov-17
08:50 UTC
090°
23 KTS
  Broken
2,500' AGL
-13° C
F
-16° C
F
78% 30.24" Hg
1024 hPa
Nov-17
07:50 UTC
090°
21 KTS
  Broken
2,700' AGL
-13° C
F
-17° C
F
72% 30.21" Hg
1023 hPa
Nov-17
06:50 UTC
090°
19 KTS
  Broken
1,600' AGL
-12° C
10° F
-16° C
F
72% 30.18" Hg
1022 hPa
Nov-17
05:50 UTC
090°
18 KTS
  Overcast
3,600' AGL
-13° C
F
-17° C
F
72% 30.18" Hg
1022 hPa
Nov-17
04:50 UTC
090°
18 KTS
  Broken
4,200' AGL
-13° C
F
-17° C
F
72% 30.15" Hg
1021 hPa